Location: SFA Observatory
(31.7598°N, 94.6613°W)
Time: 10:09:51
(UTC-06:00)

Tiangong 1 - Visible Passes

Search period start: 23 January 2018 00:00
Search period end: 02 February 2018 00:00
Orbit: 261 x 286 km, 42.8° (Epoch: 23 January)

Date Brightness Start Highest point End Pass type
(mag) Time Alt. Az. Time Alt. Az. Time Alt. Az.
23 Jan 1.7 18:27:51 10° NW 18:30:00 25° NNE 18:31:09 18° ENE visible
24 Jan 0.6 18:26:37 10° NW 18:29:02 49° NNE 18:30:58 14° ESE visible
25 Jan 0.6 18:25:24 10° WNW 18:27:50 70° SSW 18:30:15 10° SE visible
26 Jan 2.5 18:24:15 10° W 18:26:26 28° SW 18:28:36 10° SSE visible
27 Jan 3.6 18:23:26 10° WSW 18:24:49 14° SW 18:26:12 10° S visible
